TimeEDT,TemperatureF,Dew PointF,Humidity,Sea Level PressureIn,VisibilityMPH,Wind Direction,Wind SpeedMPH,Gust SpeedMPH,PrecipitationIn,Events,Conditions,WindDirDegrees,DateUTC
12:52 AM,73.0,70.0,90,29.90,10.0,Calm,Calm,-,N/A,,Mostly Cloudy,0,2013-08-28 04:52:00
1:52 AM,73.0,70.0,90,29.88,9.0,SW,3.5,-,N/A,,Clear,230,2013-08-28 05:52:00
2:52 AM,72.0,70.0,93,29.87,6.0,Calm,Calm,-,N/A,,Clear,0,2013-08-28 06:52:00
3:52 AM,71.1,69.1,93,29.86,10.0,Calm,Calm,-,N/A,,Partly Cloudy,0,2013-08-28 07:52:00
4:52 AM,69.1,66.9,93,29.87,10.0,Calm,Calm,-,N/A,,Partly Cloudy,0,2013-08-28 08:52:00
5:52 AM,68.0,66.0,93,29.88,10.0,Calm,Calm,-,N/A,,Clear,0,2013-08-28 09:52:00
6:52 AM,70.0,66.9,90,29.89,10.0,North,3.5,-,N/A,,Partly Cloudy,360,2013-08-28 10:52:00
7:52 AM,73.0,68.0,84,29.89,10.0,Calm,Calm,-,N/A,,Partly Cloudy,0,2013-08-28 11:52:00
8:52 AM,77.0,68.0,74,29.89,10.0,Calm,Calm,-,N/A,,Clear,0,2013-08-28 12:52:00
9:52 AM,77.0,68.0,74,29.89,10.0,East,6.9,-,N/A,,Clear,100,2013-08-28 13:52:00
10:52 AM,78.1,68.0,71,29.89,10.0,ESE,8.1,-,N/A,,Clear,110,2013-08-28 14:52:00
11:52 AM,79.0,69.1,72,29.88,10.0,SSE,8.1,-,N/A,,Clear,150,2013-08-28 15:52:00
12:52 PM,81.0,69.1,67,29.87,10.0,East,6.9,-,N/A,,Clear,100,2013-08-28 16:52:00
1:52 PM,82.9,68.0,60,29.86,10.0,East,6.9,-,N/A,,Clear,90,2013-08-28 17:52:00
2:52 PM,82.0,69.1,65,29.86,10.0,ESE,6.9,-,N/A,,Clear,110,2013-08-28 18:52:00
3:52 PM,80.1,68.0,67,29.86,10.0,SSE,6.9,-,N/A,,Clear,150,2013-08-28 19:52:00
4:52 PM,79.0,70.0,74,29.86,10.0,SSW,11.5,-,N/A,,Mostly Cloudy,200,2013-08-28 20:52:00
5:52 PM,80.1,71.1,74,29.86,10.0,WSW,3.5,-,N/A,,Clear,250,2013-08-28 21:52:00
6:52 PM,79.0,69.1,72,29.87,10.0,NNW,4.6,-,N/A,,Clear,330,2013-08-28 22:52:00
7:52 PM,75.9,70.0,82,29.87,10.0,SSW,3.5,-,N/A,,Clear,200,2013-08-28 23:52:00
8:52 PM,75.0,70.0,84,29.89,10.0,SSE,3.5,-,N/A,,Mostly Cloudy,150,2013-08-29 00:52:00
9:52 PM,75.0,70.0,84,29.90,10.0,NNE,3.5,-,N/A,,Clear,30,2013-08-29 01:52:00
10:52 PM,75.0,71.1,87,29.90,10.0,ENE,4.6,-,N/A,,Clear,70,2013-08-29 02:52:00
11:41 PM,73.4,71.6,94,29.90,10.0,ENE,4.6,-,N/A,,Partly Cloudy,70,2013-08-29 03:41:00
11:52 PM,75.0,72.0,90,29.90,9.0,ENE,5.8,-,N/A,,Mostly Cloudy,70,2013-08-29 03:52:00